Tracking 28920 objects as of 24-May-2024
HD Live streaming from Space Station
objects crossing your sky now

SL-12 R/B(2)

Track SL-12 R/B(2) now!


NORAD ID: 28240
Int'l Code: 2004-015D
Perigee: 35,607.4 km
Apogee: 35,731.0 km
Inclination: 12.7 °
Period: 1,429.7 minutes
Semi major axis: 42040 km
RCS: 1.2715 m2 (large)
Launch date: April 26, 2004
Source: Commonwealth of Independent States (former USSR) (CIS)
Launch site: TYURATAM MISSILE AND SPACE COMPLEX (TTMTR)

Note: This is a ROCKET BODY
Your satellite tracking list
Your tracking list is empty




NASA's NSSDC Master Catalog

Two Line Element Set (TLE):
1 28240U 04015D   24145.22862981  .00000046  00000-0  00000+0 0  9999
2 28240  12.6663  19.7710 0014697 318.6154 206.5791  1.00717793 73861
Source of the keplerian elements: AFSPC